Location: O'Brien
(30.0517°N, 82.9900°W)
Time: 08:30:33
(UTC-05:00)

Hubble Space Telescope - Visible Passes

Search period start: 22 November 2019 00:00
Search period end: 02 December 2019 00:00
Orbit: 536 x 540 km, 28.5° (Epoch: 21 November)

Date Brightness Start Highest point End Pass type
(mag) Time Alt. Az. Time Alt. Az. Time Alt. Az.
22 Nov 0.8 18:54:47 10° W 18:58:53 71° S 19:00:06 43° ESE visible
23 Nov 0.8 18:44:12 10° W 18:48:18 72° S 18:50:10 31° ESE visible
23 Nov 4.1 20:25:24 10° W 20:25:30 11° W 20:25:30 11° W visible
24 Nov 0.9 18:33:37 10° W 18:37:43 70° S 18:40:17 22° ESE visible
24 Nov 3.8 20:14:53 10° W 20:15:37 14° W 20:15:37 14° W visible
25 Nov 1.0 18:23:02 10° W 18:27:08 67° S 18:30:27 15° ESE visible
25 Nov 3.4 20:04:23 10° W 20:05:48 19° WSW 20:05:48 19° WSW visible
26 Nov 1.1 18:12:27 10° W 18:16:32 61° S 18:20:36 10° ESE visible
26 Nov 3.0 19:53:56 10° W 19:56:04 22° SW 19:56:04 22° SW visible
27 Nov 1.4 18:01:54 10° W 18:05:56 55° S 18:09:57 10° ESE visible
27 Nov 2.8 19:43:33 10° WSW 19:46:27 22° SSW 19:46:27 22° SSW visible
28 Nov 1.7 17:51:20 10° W 17:55:19 48° SSW 17:59:17 10° ESE visible
28 Nov 3.0 19:33:16 10° WSW 19:36:08 18° SSW 19:36:58 17° S visible
29 Nov 3.4 19:23:10 10° WSW 19:25:28 15° SSW 19:27:38 10° S visible
30 Nov 3.7 19:13:31 10° SW 19:14:47 11° SSW 19:16:02 10° S visible
